星链-30242 (STARLINK-30242 )

导读

STARLINK-30242是美国SpaceX星链(Starlink)项目的一颗低轨互联网通信卫星,于2023年9月1日发射。星链项目计划构建约4.2万颗卫星的全球互联网星座,为偏远地区提供高速网络接入。该卫星运行在近地轨道,采用氪离子推进与自主碰撞规避系统,支持低延迟通信,目前处于在轨运行状态,服务全球卫星互联网覆盖。

Basic Information
目录编号:
57739
目录名称:
STARLINK-30242
国际标识:
2023-131H
轨道中心:
EARTH
卫星名称:
星链-30242
卫星全名:
星链-30242 (STARLINK-30242 )
卫星状态:
在轨 (已飞行1021 天)
发射日期:
2023-09-01 UTC
国别 :
美国 (US)
星等 :
--
Orbit Information
数据来源 国际轨道数据 AOE轨道数据
星历时间 2026-06-18T15:52:10+0800
6小时前
查看轨道信息
2026-06-17T16:00:00+0800
1天前
查看轨道信息
半长轴 6861.191km 6861.15km
偏心率 0.0001636 0.0001749
轨道倾角 43.003° 43.004°
近地点辐角 274.496° 261.676°
升交点赤经 295.303° 300.927°
平近点角 85.571° 22.612°
近地点 481.931km 481.812km
远地点 484.177km 484.214km
周期 94.267分钟 94.266分钟
每日圈数 15.275784 15.275922
Detailed Information
固有亮度:
5
最大亮度:
0.3
卫星平台:
Starlink v2.0 mini
覆盖范围:
全球
运营商:
太空探索技术公司
运营商所在国:
美国
制造商(研发单位):
太空探索技术公司
制造商所在国:
美国
使用方式:
暂无
Satellite Introduction
星链(Starlink)计划是由太空探索技术公司(SpaceX)提出的一个巨型低轨卫星互联网星座项目,计划在2019年至2024年间在太空搭建由约1.2万颗卫星组成的“星链”网络,其中1584颗将部署在地球上空550千米处的近地轨道,并从2020年开始工作。该卫星仍在工作。
2D Orbit Map
3D Orbit Map
Orbit Altitude Analysis Chart
Orbit Inclination Analysis Chart
Orbit Comprehensive Analysis Chart
View Comprehensive Chart